Location: Cussy
(47.0410°N, 4.6412°E)
Time: 16:26:41
(UTC+00:00)

Cosmos 44 Rocket - Pass Details

Date: 30 November 2020
Orbit: 638 x 751 km, 65.1° (Epoch: 27 January)

Event Time Altitude Azimuth Distance (km) Brightness Sun altitude
Rises 18:34:51 0° 322° (NW) 3,170 7.1 -26.6°
Reaches altitude 10° 18:37:12 10° 321° (NW) 2,256 6.3 -27.0°
Enters shadow 18:42:11 77° 266° (W) 772 3.5 -27.8°
